When you browse on this site, cookies collect data to enhance your experience and personalize the content and advertising you see.
Visit our Privacy Policy to learn more. By continuing to use the site, you agree to this use of cookies and data.
  • In Lithuania
  • List of Countries
  • For 7 days
  • Water Temperature
  • Weather Map
  • Weather Widgets
  • user-avatar
    Login

    Hourly Weather Bolshoe Konshino

    Today, 21 August, Wednesday

    Time Temperature Precipitation Wind Pressure Humidity
    00:00 +16°C° 0 mm 1 mps 748 mmHg 97%
    01:00 +15°C° 0 mm 1 mps 748 mmHg 97%
    02:00 +15°C° 0 mm 1 mps 749 mmHg 98%
    03:00 +15°C° 0 mm 1 mps 749 mmHg 97%
    04:00 +15°C° 0 mm 1 mps 749 mmHg 95%
    05:00 +15°C° 0 mm 1 mps 749 mmHg 94%
    06:00 +16°C° 0 mm 1 mps 749 mmHg 91%
    07:00 +18°C° 0 mm 1 mps 749 mmHg 88%
    08:00 +19°C° 0 mm 1 mps 749 mmHg 86%
    09:00 +20°C° 0 mm 1 mps 749 mmHg 80%
    10:00 +22°C° 0 mm 1 mps 749 mmHg 74%
    11:00 +23°C° 0 mm 1 mps 749 mmHg 69%
    12:00 +24°C° 0 mm 2 mps 748 mmHg 69%
    13:00 +24°C° 0 mm 2 mps 748 mmHg 70%
    14:00 +24°C° 0 mm 2 mps 747 mmHg 70%
    15:00 +24°C° 0 mm 2 mps 747 mmHg 74%
    16:00 +24°C° 0 mm 3 mps 746 mmHg 77%
    17:00 +24°C° 0 mm 3 mps 746 mmHg 80%
    18:00 +22°C° 1.1 mm 3 mps 745 mmHg 86%
    19:00 +21°C° 1.1 mm 3 mps 745 mmHg 91%
    20:00 +20°C° 1.1 mm 2 mps 744 mmHg 96%
    21:00 +20°C° 0.5 mm 3 mps 744 mmHg 96%
    22:00 +20°C° 0.5 mm 3 mps 744 mmHg 96%
    23:00 +20°C° 0.5 mm 3 mps 743 mmHg 96%

    Tomorrow, 22 August, Thursday

    Time Temperature Precipitation Wind Pressure Humidity
    00:00 +20°C° 1.1 mm 3 mps 744 mmHg 96%
    01:00 +20°C° 1.1 mm 3 mps 744 mmHg 97%
    02:00 +19°C° 1.1 mm 3 mps 744 mmHg 97%
    03:00 +18°C° 1.2 mm 3 mps 744 mmHg 97%
    04:00 +17°C° 1.2 mm 3 mps 745 mmHg 97%
    05:00 +14°C° 1.2 mm 3 mps 745 mmHg 97%
    06:00 +14°C° 0.1 mm 4 mps 745 mmHg 95%
    07:00 +14°C° 0.1 mm 4 mps 746 mmHg 94%
    08:00 +14°C° 0.1 mm 4 mps 747 mmHg 92%
    09:00 +15°C° 0 mm 4 mps 747 mmHg 84%
    10:00 +18°C° 0 mm 4 mps 747 mmHg 75%
    11:00 +19°C° 0 mm 4 mps 748 mmHg 67%
    12:00 +20°C° 0 mm 4 mps 748 mmHg 64%
    13:00 +20°C° 0 mm 3 mps 748 mmHg 61%
    14:00 +21°C° 0 mm 3 mps 748 mmHg 58%
    15:00 +21°C° 0 mm 3 mps 748 mmHg 61%
    16:00 +20°C° 0 mm 2 mps 748 mmHg 63%
    17:00 +20°C° 0 mm 2 mps 748 mmHg 66%
    18:00 +18°C° 0 mm 2 mps 749 mmHg 72%
    19:00 +16°C° 0 mm 2 mps 749 mmHg 78%
    20:00 +14°C° 0 mm 1 mps 749 mmHg 84%
    21:00 +13°C° 0 mm 1 mps 749 mmHg 86%
    22:00 +13°C° 0 mm 1 mps 749 mmHg 88%
    23:00 +12°C° 0 mm 1 mps 750 mmHg 90%

    Day after tomorrow, 23 August, Friday

    Time Temperature Precipitation Wind Pressure Humidity
    00:00 +12°C° 0 mm 1 mps 750 mmHg 91%
    01:00 +12°C° 0 mm 1 mps 750 mmHg 92%
    02:00 +12°C° 0 mm 1 mps 750 mmHg 93%
    03:00 +11°C° 0 mm 1 mps 750 mmHg 94%
    04:00 +11°C° 0 mm 1 mps 750 mmHg 95%
    05:00 +11°C° 0 mm 1 mps 750 mmHg 96%
    06:00 +13°C° 0 mm 1 mps 751 mmHg 89%
    07:00 +15°C° 0 mm 1 mps 751 mmHg 82%
    08:00 +18°C° 0 mm 1 mps 751 mmHg 75%
    09:00 +18°C° 0 mm 2 mps 751 mmHg 68%
    10:00 +19°C° 0 mm 2 mps 751 mmHg 61%
    11:00 +20°C° 0 mm 3 mps 751 mmHg 54%
    12:00 +21°C° 0 mm 3 mps 751 mmHg 52%
    13:00 +21°C° 0 mm 2 mps 751 mmHg 50%
    14:00 +23°C° 0 mm 2 mps 751 mmHg 48%
    15:00 +21°C° 0 mm 2 mps 750 mmHg 54%
    16:00 +22°C° 0 mm 1 mps 750 mmHg 59%
    17:00 +22°C° 0 mm 1 mps 750 mmHg 65%
    18:00 +19°C° 0 mm 1 mps 750 mmHg 71%
    19:00 +16°C° 0 mm 1 mps 750 mmHg 77%
    20:00 +14°C° 0 mm 1 mps 750 mmHg 83%
    21:00 +14°C° 0 mm 1 mps 750 mmHg 85%
    22:00 +13°C° 0 mm 1 mps 750 mmHg 87%
    23:00 +13°C° 0 mm 1 mps 750 mmHg 89%

    24 August, Saturday

    Time Temperature Precipitation Wind Pressure Humidity
    00:00 +12°C° 0 mm 1 mps 750 mmHg 90%
    01:00 +12°C° 0 mm 1 mps 750 mmHg 91%
    02:00 +12°C° 0 mm 1 mps 750 mmHg 92%
    03:00 +12°C° 0 mm 1 mps 750 mmHg 92%
    04:00 +12°C° 0 mm 2 mps 750 mmHg 92%
    05:00 +10°C° 0 mm 2 mps 750 mmHg 92%
    06:00 +13°C° 0 mm 2 mps 750 mmHg 86%
    07:00 +16°C° 0 mm 2 mps 750 mmHg 79%
    08:00 +18°C° 0 mm 2 mps 749 mmHg 72%
    09:00 +19°C° 0 mm 3 mps 749 mmHg 67%
    10:00 +20°C° 0 mm 3 mps 749 mmHg 63%
    11:00 +22°C° 0 mm 4 mps 749 mmHg 58%
    12:00 +22°C° 0 mm 4 mps 749 mmHg 57%
    13:00 +22°C° 0 mm 4 mps 748 mmHg 56%
    14:00 +23°C° 0 mm 4 mps 748 mmHg 56%
    15:00 +22°C° 0 mm 3 mps 748 mmHg 60%
    16:00 +21°C° 0 mm 3 mps 747 mmHg 65%
    17:00 +21°C° 0 mm 3 mps 747 mmHg 70%
    18:00 +19°C° 0 mm 3 mps 747 mmHg 75%
    19:00 +18°C° 0 mm 3 mps 747 mmHg 81%
    20:00 +16°C° 0 mm 2 mps 747 mmHg 87%
    21:00 +16°C° 0 mm 3 mps 746 mmHg 89%
    22:00 +14°C° 0 mm 3 mps 746 mmHg 90%
    23:00 +14°C° 0 mm 3 mps 746 mmHg 92%

    25 August, Sunday

    Time Temperature Precipitation Wind Pressure Humidity
    00:00 +14°C° 0 mm 2 mps 746 mmHg 93%
    01:00 +14°C° 0 mm 2 mps 746 mmHg 95%
    02:00 +14°C° 0 mm 2 mps 746 mmHg 96%
    03:00 +14°C° 0 mm 2 mps 746 mmHg 97%
    04:00 +13°C° 0 mm 2 mps 746 mmHg 97%
    05:00 +13°C° 0 mm 2 mps 746 mmHg 98%
    06:00 +14°C° 0 mm 2 mps 746 mmHg 93%
    07:00 +16°C° 0 mm 3 mps 747 mmHg 88%
    08:00 +17°C° 0 mm 3 mps 747 mmHg 83%
    09:00 +18°C° 0 mm 3 mps 747 mmHg 74%
    10:00 +19°C° 0 mm 3 mps 747 mmHg 65%
    11:00 +20°C° 0 mm 3 mps 748 mmHg 56%
    12:00 +20°C° 0 mm 3 mps 748 mmHg 55%
    13:00 +21°C° 0 mm 3 mps 748 mmHg 54%
    14:00 +21°C° 0 mm 3 mps 748 mmHg 53%
    15:00 +20°C° 0 mm 3 mps 748 mmHg 58%
    16:00 +20°C° 0 mm 3 mps 749 mmHg 62%
    17:00 +19°C° 0 mm 2 mps 749 mmHg 67%
    18:00 +17°C° 0 mm 2 mps 749 mmHg 75%
    19:00 +15°C° 0 mm 2 mps 749 mmHg 84%
    20:00 +13°C° 0 mm 1 mps 749 mmHg 92%
    21:00 +12°C° 0 mm 1 mps 750 mmHg 93%
    22:00 +12°C° 0 mm 1 mps 750 mmHg 94%
    23:00 +11°C° 0 mm 1 mps 751 mmHg 96%

    26 August, Monday

    Time Temperature Precipitation Wind Pressure Humidity
    00:00 +11°C° 0 mm 1 mps 751 mmHg 96%
    01:00 +10°C° 0 mm 1 mps 751 mmHg 96%
    02:00 +10°C° 0 mm 1 mps 751 mmHg 96%
    03:00 +9°C° 0 mm 0 mps 751 mmHg 96%
    04:00 +9°C° 0 mm 0 mps 751 mmHg 96%
    05:00 +8°C° 0 mm 0 mps 751 mmHg 96%
    06:00 +10°C° 0 mm 0 mps 752 mmHg 90%
    07:00 +12°C° 0 mm 0 mps 752 mmHg 84%
    08:00 +14°C° 0 mm 0 mps 752 mmHg 78%
    09:00 +16°C° 0 mm 0 mps 752 mmHg 71%
    10:00 +17°C° 0 mm 0 mps 752 mmHg 64%
    11:00 +21°C° 0 mm 1 mps 752 mmHg 57%
    12:00 +21°C° 0 mm 1 mps 751 mmHg 54%
    13:00 +21°C° 0 mm 1 mps 751 mmHg 51%
    14:00 +22°C° 0 mm 1 mps 751 mmHg 48%
    15:00 +21°C° 0 mm 1 mps 750 mmHg 54%
    16:00 +21°C° 0 mm 1 mps 750 mmHg 59%
    17:00 +20°C° 0 mm 1 mps 750 mmHg 65%
    18:00 +18°C° 0 mm 1 mps 750 mmHg 72%
    19:00 +15°C° 0 mm 1 mps 749 mmHg 79%
    20:00 +13°C° 0 mm 2 mps 749 mmHg 86%
    21:00 +13°C° 0 mm 2 mps 749 mmHg 88%
    22:00 +12°C° 0 mm 2 mps 749 mmHg 89%
    23:00 +12°C° 0 mm 2 mps 749 mmHg 91%
    Show more